Weather History for Missoula, MT

Change the Weather History Date:

Wednesday, June 13, 2012

  Actual Average Record
Temperature  
Mean Temperature 59 °F 60 °F  
Max Temperature 69 °F 74 °F 100 °F (1918)
Min Temperature 48 °F 46 °F 31 °F (1952)
Degree Days  
Heating Degree Days 6 6  
Month to date heating degree days 134 89  
Since 1 June heating degree days 134 89  
Since 1 July heating degree days 6971 7213  
Cooling Degree Days 0 1  
Month to date cooling degree days 0 13  
Year to date cooling degree days 0 19  
Since 1 June cooling degree days 0 13  
Growing Degree Days 8 (Base 50)    
Moisture  
Dew Point 44 °F    
Average Humidity 58    
Maximum Humidity 83    
Minimum Humidity 32    
Precipitation  
Precipitation 0.07 in 0.07 in 1.20 in (1901)
Month to date precipitation 1.33 1.05  
Year to date precipitation 7.81 6.83  
Snow  
Snow 0.00 in - - ()
Month to date snowfall 0.0  
Year to date snowfall 29.2  
Since 1 July snowfall 40.1  
Snow Depth 0.00 in    
Sea Level Pressure  
Sea Level Pressure 29.92 in    
Wind  
Wind Speed 8 mph (WNW)    
Max Wind Speed 26 mph    
Max Gust Speed 33 mph    
Visibility 10 miles    
Events Rain    
T = Trace of Precipitation, MM = Missing Value Source: NWS Daily Summary

Daily Weather History Graph

Daily Weather History Graph

Search for Another Location

Airport:

Trip Planner

Search our weather history database for the weather conditions in past years. The results will help you decide how hot, cold, wet, or windy it might be!

Date:

Astronomy

Jun. 13, 2012 Rise Set
Actual Time 5:41 AM MDT 9:32 PM MDT
Civil Twilight 5:01 AM MDT 10:11 PM MDT
Nautical Twilight 4:07 AM MDT 11:05 PM MDT
Astronomical Twilight 2:48 AM MDT 12:25 AM MDT
Moon 2:13 AM MDT (6/13) 4:08 PM MDT (6/13)
Length of Visible Light 17h 10m
Length of Day
15h 51m
Waning Crescent, 28% of the Moon is Illuminated
Jun 13
Waning Crescent
Jun 19
New
Jun 26
First Quarter
Jul 3
Full
Jul 10
Last Quarter

Hourly Weather History & Observations

Time (MDT) Temp. Dew Point Humidity Pressure Visibility Wind Dir Wind Speed Gust Speed Precip Events Conditions
12:27 AM 55.4 °F 50.0 °F 82% 29.96 in 10.0 mi NW 10.4 mph - 0.01 in Rain Light Rain
12:53 AM 54.0 °F 48.9 °F 83% 29.92 in 10.0 mi NE 3.5 mph - 0.02 in Rain Light Rain
1:53 AM 53.1 °F 48.9 °F 86% 29.90 in 10.0 mi South 3.5 mph - 0.00 in   Overcast
2:53 AM 54.0 °F 50.0 °F 86% 29.88 in 6.0 mi Calm Calm - 0.01 in Rain Light Rain
3:53 AM 54.0 °F 50.0 °F 86% 29.88 in 10.0 mi ESE 3.5 mph - 0.01 in   Mostly Cloudy
4:19 AM 53.6 °F 50.0 °F 88% 29.92 in 10.0 mi South 3.5 mph - N/A   Mostly Cloudy
4:53 AM 51.8 °F 50.0 °F 94% 29.93 in 10.0 mi Calm Calm - N/A Rain Light Rain
5:53 AM 52.0 °F 48.9 °F 89% 29.90 in 10.0 mi West 8.1 mph - 0.00 in   Overcast
6:53 AM 54.0 °F 48.0 °F 80% 29.90 in 9.0 mi NE 4.6 mph - 0.00 in Rain Light Rain
7:53 AM 54.0 °F 48.9 °F 83% 29.89 in 10.0 mi SSE 3.5 mph - 0.00 in   Mostly Cloudy
8:53 AM 55.9 °F 50.0 °F 80% 29.89 in 10.0 mi Calm Calm - 0.00 in   Mostly Cloudy
9:53 AM 57.0 °F 50.0 °F 77% 29.89 in 7.0 mi WSW 5.8 mph - 0.00 in Rain Light Rain
10:53 AM 62.1 °F 45.0 °F 53% 29.87 in 10.0 mi NNW 8.1 mph - 0.01 in   Scattered Clouds
11:53 AM 59.0 °F 43.0 °F 55% 29.89 in 10.0 mi WSW 6.9 mph - N/A   Overcast
12:53 PM 62.1 °F 42.1 °F 48% 29.90 in 10.0 mi West 10.4 mph 25.3 mph 0.00 in   Overcast
1:53 PM 64.9 °F 42.1 °F 43% 29.89 in 10.0 mi Variable 3.5 mph - 0.00 in   Overcast
2:53 PM 64.9 °F 39.9 °F 40% 29.88 in 10.0 mi WSW 12.7 mph - N/A   Overcast
3:53 PM 66.9 °F 37.9 °F 34% 29.88 in 10.0 mi WSW 17.3 mph 26.5 mph N/A   Partly Cloudy
4:53 PM 68.0 °F 37.9 °F 33% 29.89 in 10.0 mi West 13.8 mph 19.6 mph N/A   Mostly Cloudy
5:53 PM 62.1 °F 39.9 °F 44% 29.91 in 10.0 mi NW 21.9 mph 28.8 mph N/A   Overcast
6:04 PM 62.6 °F 39.2 °F 42% 29.93 in 10.0 mi NW 17.3 mph 28.8 mph N/A   Overcast
6:53 PM 63.0 °F 39.9 °F 43% 29.92 in 10.0 mi NW 17.3 mph 26.5 mph N/A   Scattered Clouds
7:53 PM 62.1 °F 39.9 °F 44% 29.94 in 10.0 mi NW 17.3 mph 25.3 mph N/A   Overcast
8:53 PM 59.0 °F 39.0 °F 48% 29.96 in 10.0 mi NW 9.2 mph - N/A   Scattered Clouds
9:53 PM 57.0 °F 39.0 °F 51% 29.97 in 10.0 mi NW 9.2 mph - N/A   Mostly Cloudy
10:53 PM 53.1 °F 42.1 °F 66% 29.99 in 10.0 mi WNW 5.8 mph - N/A   Overcast
11:53 PM 48.0 °F 39.9 °F 74% 30.01 in 10.0 mi NW 5.8 mph - N/A   Clear